Tracking 19831 objects as of 23-Aug-2019
HD Live streaming from Space Station
objects crossing your sky now

DRAGON CRS-10 DEB


DRAGON CRS-10 DEB is no longer on orbit


NORAD ID: 42054
Int'l Code: 2017-009B
Perigee: N/A
Apogee: N/A
Inclination: N/A
Period: N/A
Semi major axis: N/A
RCS: N/A
Launch date: February 19, 2017
Source: United States (US)
Launch site: AIR FORCE EASTERN TEST RANGE (AFETR)
Decay date: 2017-02-23

Note: This is SATELLITE DEBRIS
aabbcc
Your satellite tracking list
Your tracking list is empty




NASA's NSSDC Master Catalog

Two Line Element Set (TLE):
1 42054U 17009B   17054.64124734  .33563489  12657-4  74745-3 0  9996
2 42054  51.6141 243.2146 0012201  57.5493 316.4888 16.45524081   640
Source of the keplerian elements: AFSPC